Regional Weather Roundup
Issued by NWS

Home | Current Version | Previous Version | Graphics & Text | Print | Product List | Glossary Off
Versions: 1 2 3 4 5 6 7 8 9 10 11 12 13 14 15 16 17 18 19 20 21 22 23 24 25 26 27 28 29 30 31 32 33 34 35 36 37 38 39 40 41 42 43 44 45 46 47 48 49 50

000
ASUS43 KMPX 280210
RWRMN
WEATHER ROUNDUP FOR MINNESOTA
NATIONAL WEATHER SERVICE TWIN CITIES/CHANHASSEN MN
900 PM CDT TUE JUN 27 2017


NOTE: "FAIR" INDICATES FEW OR NO CLOUDS BELOW 12,000 FEET WITH NO
SIGNIFICANT WEATHER AND/OR OBSTRUCTIONS TO VISIBILITY. N/A MEANS
CURRENT SKY AND/OR WEATHER CONDITIONS ARE NOT AVAILABLE.

MNZ060>063-068>070-280300-
   Twin Cities Metro

CITY           SKY/WX    TMP DP  RH WIND       PRES   REMARKS
TWIN CITIES    CLOUDY    73  43  33 S14       29.83F
ST PAUL        MOCLDY    69  46  43 S8        29.85F
CRYSTAL        MOCLDY    70  42  36 SE13      29.80F
BLAINE         PTCLDY    72  45  37 S12       29.82F
LAKEVILLE      CLOUDY    68  46  45 S5        29.86F
EDEN PRAIRIE   LGT RAIN  71  46  40 S12       29.82F
SOUTH ST PAUL  MOCLDY    70  44  38 S3        29.84F
LAKE ELMO      FAIR      68  45  42 S7        29.86F
$$
MNZ001>005-007-008-013>017-022>024-027-028-280300-
   Northwest Minnesota

CITY           SKY/WX    TMP DP  RH WIND       PRES   REMARKS
BEMIDJI        PTCLDY    67  46  47 SE10      29.75F
HALLOCK        CLOUDY    72  46  40 SE13      29.63F
ROSEAU         MOCLDY    66  54  63 S7        29.70F
WARROAD        CLOUDY    70  54  56 CALM      29.72S
THIEF RVR FALL CLOUDY    70  46  42 SE10      29.70F
CROOKSTON      PTCLDY    70  48  46 SE13      29.66F
FOSSTON        MOCLDY    66  46  48 SE7       29.73F
DETROIT LAKES  CLOUDY    66  50  55 SE10      29.73F
MOORHEAD       MOCLDY    70  48  46 SE9       29.67F
PARK RAPIDS    CLOUDY    68  43  40 SE8       29.76F
$$
MNZ006-009>011-018-025>026-280300-
   North Central Minnesota

CITY           SKY/WX    TMP DP  RH WIND       PRES   REMARKS
BAUDETTE       MOCLDY    67  48  50 S8        29.73F
FLAG ISLAND    MOCLDY    66  55  68 S12       29.71S
INTL FALLS     CLEAR     65  46  50 VRB3      29.75F
WASKISH        PTCLDY    66  50  55 CALM      29.75F
BIG FORK       CLEAR     61  46  59 S3        29.79S
LONGVILLE      CLEAR     63  50  63 CALM      29.79F
GRAND RAPIDS   CLEAR     62  47  57 S6        29.83F
CRANE LAKE     CLOUDY    61  54  77 CALM      29.80S
ORR            PTCLDY    64  43  45 S7        29.78S
COOK           CLOUDY    66  43  42 S3        29.81F
$$
MNZ012-019>021-037-280300-
   Northeast Minnesota

CITY           SKY/WX    TMP DP  RH WIND       PRES   REMARKS
DULUTH         CLEAR     65  46  50 SW7       29.84F
ELY            CLOUDY    64  46  52 S6        29.82F
HIBBING        CLEAR     59  46  62 CALM      29.82S
EVELETH        CLEAR     64  34  32 S7        29.84S
DULUTH HARBOR  CLEAR     70  52  52 S7        29.83S
TWO HARBORS    PTCLDY    68  52  56 SW3       29.82S
SILVER BAY     CLOUDY    64  48  55 CALM      29.82S
GRAND MARAIS     N/A     51  46  83 SW3       29.82F
G MARAIS ARPRT CLOUDY    63  41  45 SW9       29.85S
$$
MNZ029>031-032-039>041-046>048-054>057-064-280300-
   West Central Minnesota

CITY           SKY/WX    TMP DP  RH WIND       PRES   REMARKS
FERGUS FALLS   CLOUDY    66  54  63 SE8       29.67S
WHEATON        PTCLDY    72  43  35 SE13      29.69S
MORRIS         MOCLDY    73  46  38 S23       29.68F
ALEXANDRIA     CLOUDY    64  52  64 E6        29.73F
ELBOW LAKE     CLOUDY    67  50  54 SE13      29.70S
WADENA         CLOUDY    63  52  67 E6        29.75S
GLENWOOD       CLOUDY    68  48  49 S15G21    29.72F
APPLETON       PTCLDY    73  43  33 SE13      29.70S
BENSON         CLOUDY    72  45  37 S16G24    29.72F
ORTONVILLE     CLEAR     73  45  35 SE9       29.69S
MADISON        CLEAR     75  45  33 SE14      29.70R
WILLMAR        FAIR      72  46  40 SE14G20   29.76F
$$
MNZ033>034-036-042>043-049>051-058-059-280300-
   Central Minnesota

CITY           SKY/WX    TMP DP  RH WIND       PRES   REMARKS
ST CLOUD       MOCLDY    69  46  43 S9        29.78F
SAUK CENTRE    MOCLDY    64  50  60 SE14G20   29.74F
PAYNESVILLE    CLOUDY    68  47  47 SE14      29.75F
AITKIN         CLEAR     63  48  59 SE3       29.80S
PINE RIVER     CLEAR     64  48  55 SE6       29.82F
BRAINERD       CLEAR     65  45  48 SE6       29.79F
STAPLES        PTCLDY    66  45  45 SE7       29.76F
LONG PRAIRIE   RAIN      63  50  63 E9        29.75F
LITTLE FALLS   PTCLDY    66  41  39 SE7       29.77S
LITCHFIELD     CLOUDY    72  48  43 S8        29.76R
BUFFALO        CLOUDY    70  44  39 S8        29.81F
MAPLE LAKE     CLOUDY    71  47  42 S5        29.81R
HUTCHINSON     CLOUDY    71  48  43 S9        29.78F
$$
MNZ037-044-045-052-053-280300-
   East Central Minnesota

CITY           SKY/WX    TMP DP  RH WIND       PRES   REMARKS
PRINCETON      CLEAR     70  45  40 SE8       29.79F
MORA           CLEAR     64  43  45 SE5       29.82F
CAMBRIDGE      CLEAR     72  50  46 SE7       29.79F
RUSH CITY      PTCLDY    66  45  45 SE7       29.83F
MOOSE LAKE     CLEAR     64  43  45 CALM      29.81F
HINCKLEY       FAIR      66  46  48 SE5       29.82F
CLOQUET        CLEAR     64  39  39 S3        29.84S
MCGREGOR       CLEAR     63  46  55 SE5       29.83F
$$
MNZ071>073-080-081-089-090-097-098-280300-
   Southwest Minnesota

CITY           SKY/WX    TMP DP  RH WIND       PRES   REMARKS
MONTEVIDEO     CLOUDY    73  45  35 S13G20    29.72S
GRANITE FALLS  CLOUDY    76  47  35 SE13G24   29.74F
CANBY          CLEAR     73  50  43 CALM      29.71R
MARSHALL       CLOUDY    72  51  47 SE15      29.72F
REDWOOD FALLS  MOCLDY    74  45  35 SE15      29.75F
OLIVIA         CLOUDY    72  45  37 SE8       29.76S
PIPESTONE      MOCLDY    75  57  53 S16G25    29.72F
WINDOM         CLOUDY    73  48  40 SE12      29.78F
WORTHINGTON    CLOUDY    73  57  57 S10       29.78R
JACKSON        CLOUDY    72  50  46 SE9       29.80F
TRACY          PTCLDY    73  54  50 S9        29.75F
SLAYTON        CLOUDY    73  54  50 SE17      29.77S
$$
MNZ065>067-074>077-082>085-091>093-280300-
   South Central Minnesota

CITY           SKY/WX    TMP DP  RH WIND       PRES   REMARKS
MANKATO        CLOUDY    70  48  45 SE10      29.84F
NEW ULM        CLOUDY    72  43  35 SE12G18   29.79F
ST JAMES       CLOUDY    72  46  40 SE14G21   29.80S
FAIRMONT       PTCLDY    70  50  49 SE13      29.81F
GLENCOE        CLOUDY    72  48  43 S10G16    29.77F
FARIBAULT      PTCLDY    70  45  40 SE9       29.86F
OWATONNA       CLOUDY    70  46  43 S6        29.88F
WASECA         CLOUDY    68  45  42 SE7       29.88F
ALBERT LEA     CLOUDY    70  45  40 S7        29.88R
$$
MNZ078>079-086>088-094>096-280300-
   Southeast Minnesota

CITY           SKY/WX    TMP DP  RH WIND       PRES   REMARKS
ROCHESTER      CLOUDY    67  44  43 S8        29.91R
RED WING       CLEAR     70  41  35 S7        29.87F
STANTON        CLOUDY    70  44  38 S6        29.86F
DODGE CENTER   CLOUDY    66  45  45 S6        29.91R
WINONA         CLEAR     68  50  52 CALM      29.91R
AUSTIN         PTCLDY    66  45  45 S3        29.90R
PRESTON        CLOUDY    65  44  46 S9        29.91S
$$
ABBREVIATIONS USED IN REMARKS
   TC - TEMPERATURES IN CELSIUS
  WCI - WIND CHILL INDEX
   HX - HEAT INDEX
  VSB - VISIBILITY
$$




USA.gov is the U.S. government's official web portal to all federal, state and local government web resources and services.